Regional Weather Roundup
Issued by NWS Austin/San Antonio, TX

Home | Current Version | Previous Version | Text Only | Print | Product List | Glossary On
Versions: 1 2 3 4 5 6 7 8 9 10 11 12 13 14 15 16 17 18 19 20 21 22 23 24 25 26 27 28 29 30 31 32 33 34 35 36 37 38 39 40 41 42 43 44 45 46 47 48 49 50
000
ASUS44 KEWX 290611
RWREWX
SOUTH TEXAS REGIONAL WEATHER ROUNDUP
NATIONAL WEATHER SERVICE AUSTIN/SAN ANTONIO TX
100 AM CDT THU JUN 29 2017

NOTE: "FAIR" INDICATED FEW OR NO CLOUDS BELOW 12,000 FEET WITH NO
SIGNIFICANT WEATHER AND/OR OBSTRUCTIONS TO VISIBILITY.

* - THESE STATIONS ARE NOT NWS OR FAA STATIONS...AND ARE NOT SUBJECT
    TO NWS AND FAA QUALITY CONTROL.

TXZ171-172-183>190-290700-
TEXAS HILL COUNTRY AND EDWARDS PLATEAU

CITY           SKY/WX    TMP DP  RH WIND       PRES   REMARKS
JUNCTION       CLEAR     76  66  71 CALM      29.91S
6HR MIN TEMP:  76; 6HR MAX TEMP:  91;

*LLANO         CLEAR     73  70  88 CALM      29.92S
BURNET         CLEAR     78  69  73 SE3       29.92S
6HR MIN TEMP:  78; 6HR MAX TEMP:  88;

*HORSESHOE BAY CLEAR     76  70  82 MISG      29.90S
6HR MIN TEMP:  76; 6HR MAX TEMP:  89;

*KERRVILLE     CLEAR     72  68  88 SE3       29.92S
6HR MIN TEMP:  72; 6HR MAX TEMP:  89;

*FREDERICKSBRG CLEAR     73  66  79 SE3       29.93R
6HR MIN TEMP:  72; 6HR MAX TEMP:  86;

*ROCKSPRINGS   CLEAR     73  72  94 S8        29.96S
*BOERNE STAGE  CLEAR     73  70  88 S5        29.93R
*CASTROVILLE   CLEAR     77  70  78 MISG      29.90S
HONDO          CLEAR     78  71  79 SE8       29.89R
6HR MIN TEMP:  78; 6HR MAX TEMP:  92;

*UVALDE        CLEAR     76  69  79 CALM      29.89R HAZE
6HR MIN TEMP:  75; 6HR MAX TEMP:  91;

DEL RIO        CLEAR     81  66  60 E9        29.84S
6HR MIN TEMP:  81; 6HR MAX TEMP:  93;

LAUGHLIN AFB   PTCLDY    79  67  68 SE9       29.85S
6HR MIN TEMP:  78; 6HR MAX TEMP:  93;

CARRIZO SPRGS  CLEAR     81  72  74 SE8       29.84F
*EAGLE PASS    CLEAR     81  66  61 E7        29.85F
$$

TXZ173-191>194-202-209-217>225-228-290700-
CENTRAL AND SOUTH CENTRAL TEXAS

CITY           SKY/WX    TMP DP  RH WIND       PRES   REMARKS
GEORGETOWN     CLEAR     79  70  73 SE3       29.88S
6HR MIN TEMP:  79; 6HR MAX TEMP:  90;

AUSTIN/BERGSTM CLEAR     78  73  84 S7        29.87S
6HR MIN TEMP:  78; 6HR MAX TEMP:  92;

AUSTIN/MABRY   CLEAR     80  72  76 VRB5      29.88F
6HR MIN TEMP:  80; 6HR MAX TEMP:  90;

*AUSTIN/EXEC     N/A     75  73  94 SE7       29.88F
*LAGO VISTA    CLEAR     78  71  80 S6        29.91R
6HR MIN TEMP:  78; 6HR MAX TEMP:  89;

SAN MARCOS     CLEAR     75  73  94 S8        29.90R
6HR MIN TEMP:  75; 6HR MAX TEMP:  90;

NEW BRAUNFELS  CLEAR     77  73  87 S8        29.88R
6HR MIN TEMP:  76; 6HR MAX TEMP:  91;

RANDOLPH AFB   CLEAR     75  75 100 SE8       29.89R
6HR MIN TEMP:  75; 6HR MAX TEMP:  91;

PT SAN ANTONIO CLEAR     78  73  83 SE12      29.87S
6HR MIN TEMP:  78; 6HR MAX TEMP:  90;

SAN ANTONIO    PTCLDY    79  72  79 SE13      29.89S
6HR MIN TEMP:  79; 6HR MAX TEMP:  90;

STINSON FIELD  CLEAR     79  73  82 SE8       29.86F
6HR MIN TEMP:  79; 6HR MAX TEMP:  92;

*LA GRANGE     CLEAR     78  76  94 CALM      29.88R
6HR MIN TEMP:  78; 6HR MAX TEMP:  90;

*GIDDINGS      MOCLDY    78  72  82 S3        29.90S
6HR MIN TEMP:  77; 6HR MAX TEMP:  90;

*GONZALES      CLEAR     77  77  99 S5        29.88R
6HR MIN TEMP:  77; 6HR MAX TEMP:  92;

$$

TXZ163>164-176>182-195>201-210>213-226-227-235-290700-
SOUTHEAST TEXAS

CITY           SKY/WX    TMP DP  RH WIND       PRES   REMARKS
COLLEGE STN    CLEAR     77  73  87 SE8       29.89R
6HR MIN TEMP:  77; 6HR MAX TEMP:  90;

*BRYAN         CLEAR     74  74 100 SE6       29.91R
6HR MIN TEMP:  74; 6HR MAX TEMP:  87;

*CALDWELL      NOT AVBL
*CROCKETT      CLEAR     73  72  94 CALM      29.94S
*BRENHAM       MOCLDY    77  74  90 SE3       29.90S
6HR MIN TEMP:  77; 6HR MAX TEMP:  90; 6HR PCP:  0.01;

HUNTSVILLE     CLEAR     76  69  79 SE3       29.90F
6HR MIN TEMP:  76; 6HR MAX TEMP:  88;

CONROE         CLEAR     73  70  90 CALM      29.90S
6HR MIN TEMP:  73; 6HR MAX TEMP:  86;

HOUSTON BUSH   MOCLDY    77  72  84 E9        29.88S
6HR MIN TEMP:  77; 6HR MAX TEMP:  85;

HOUSTON HOBBY  MOCLDY    81  74  79 E5        29.87F
6HR MIN TEMP:  80; 6HR MAX TEMP:  85;

*HOUSTON SW AP PTCLDY    76  73  91 CALM      29.89S
6HR MIN TEMP:  76; 6HR MAX TEMP:  85;

PEARLAND       CLEAR     81  74  79 CALM      29.89S
6HR MIN TEMP:  80; 6HR MAX TEMP:  86; 6HR PCP: TRACE;

HOUSTON HOOKS  MOCLDY    78  73  84 E3        29.89S
6HR MIN TEMP:  78; 6HR MAX TEMP:  86;

ELLINGTON FLD  NOT AVBL
SUGAR LAND     CLEAR     79  75  87 E5        29.88R
6HR MIN TEMP:  79; 6HR MAX TEMP:  85;

*HOUSTON EXEC  MOCLDY    75  73  94 SE5       29.90R
*CLEVELAND MUN PTCLDY    72  70  95 CALM      29.91S
6HR MIN TEMP:  72; 6HR MAX TEMP:  82;

*WHARTON       CLEAR     73  71  93 CALM      29.89S
6HR MIN TEMP:  73; 6HR MAX TEMP:  85;

*COLUMBUS      FAIR      76  74  92 CALM      29.89S
6HR MIN TEMP:  76; 6HR MAX TEMP:  87;

*EAGLE LAKE    CLEAR     76  76  99 CALM      29.88S
6HR MIN TEMP:  76; 6HR MAX TEMP:  88;

$$

TXZ214>216-236>238-290700-
THE UPPER TEXAS COAST

CITY           SKY/WX    TMP DP  RH WIND       PRES   REMARKS
*ORANGE        CLOUDY    78  76  93 SE7       29.92S
6HR MIN TEMP:  76; 6HR MAX TEMP:  83;

PORT ARTHUR      N/A    N/A N/A N/A MISG      29.90R
GALVESTON      MOCLDY    80  79  96 S17       29.88S
6HR MIN TEMP:  79; 6HR MAX TEMP:  82; 6HR PCP:  0.05;

ANGLETON       PTCLDY    76  75  97 CALM      29.87S
6HR MIN TEMP:  75; 6HR MAX TEMP:  85;

*BAY CITY      CLEAR     76  75  96 CALM      29.87S
PALACIOS       MOCLDY    78  76  93 S8        29.86S
6HR MIN TEMP:  75; 6HR MAX TEMP:  81;

$$

TXZ229>234-239>247-290700-
TEXAS COASTAL BEND AND RIO GRANDE PLAINS

CITY           SKY/WX    TMP DP  RH WIND       PRES   REMARKS
VICTORIA       CLEAR     76  74  93 SE3       29.87F
6HR MIN TEMP:  76; 6HR MAX TEMP:  87;

*BEEVILLE      CLEAR    N/A N/A N/A CALM      29.87F
ROCKPORT       CLEAR     81  74  79 CALM      29.85F
6HR MIN TEMP:  81; 6HR MAX TEMP:  86;

*PORT ARANSAS  MOCLDY    82  76  81 S13       29.86S HX  90
6HR MIN TEMP:  82; 6HR MAX TEMP:  83;

*PORT LAVACA   CLEAR     77  77 100 CALM      29.87F
6HR MIN TEMP:  77; 6HR MAX TEMP:  84;

*INGLESIDE     MOCLDY    81  77  86 MISG      29.85F
CORPUS CHRISTI PTCLDY    77  76  96 S3        29.85F
6HR MIN TEMP:  77; 6HR MAX TEMP:  86;

CORPUS NAS     PTCLDY    84  79  85 SW8       29.85F HX  96
6HR MIN TEMP:  83; 6HR MAX TEMP:  87;

*ROBSTOWN      CLEAR     78  78 100 SE3       29.86F
6HR MIN TEMP:  78; 6HR MAX TEMP:  87;

ALICE          CLEAR     76  73  91 CALM      29.85F
6HR MIN TEMP:  76; 6HR MAX TEMP:  89;

KINGSVILLE NAS CLEAR     79  78  97 S8        29.85F
6HR MIN TEMP:  79; 6HR MAX TEMP:  88;

COTULLA        CLEAR     80  72  76 SE8       29.86S
6HR MIN TEMP:  80; 6HR MAX TEMP:  93;

*FAITH RANCH   CLEAR     82  72  69 SE10      29.85S
LAREDO         CLEAR     83  74  74 SE12      29.86S
6HR MIN TEMP:  83; 6HR MAX TEMP:  97;

$$

TXZ248>255-290700-
DEEP SOUTH TEXAS

CITY           SKY/WX    TMP DP  RH WIND       PRES   REMARKS
BROWNSVILLE    CLEAR     79  77  94 S7        29.87F
6HR MIN TEMP:  78; 6HR MAX TEMP:  83;

PORT ISABEL    CLEAR     80  77  90 S6        29.86F
6HR MIN TEMP:  80; 6HR MAX TEMP:  86;

*SOUTH PADRE   NOT AVBL
HARLINGEN


USA.gov is the U.S. government's official web portal to all federal, state and local government web resources and services.